Regional Weather Roundup
Issued by NWS Grand Forks, ND

Home | Current Version | Previous Version | Graphics & Text | Print | Product List | Glossary On
Versions: 1 2 3 4 5 6 7 8 9 10 11 12 13 14 15 16 17 18 19 20 21 22 23 24 25 26 27 28 29 30 31 32 33 34 35 36 37 38 39 40 41 42 43 44 45 46 47 48 49 50
000
ASUS43 KFGF 100331
RWRFGF
PRAIRIE TO PINES  WEATHER ROUNDUP
NATIONAL WEATHER SERVICE EASTERN NORTH DAKOTA/GRAND FORKS ND
900 PM CST FRI DEC 09 2016

 **SATELLITE DATA USED TO AUGMENT SKY COVER AT AUTOMATED STATIONS**
 *****  WEATHER ACROSS EASTERN NORTH DAKOTA  *****

CITY           SKY/WX    TMP DP  RH WIND       PRES   REMARKS
GRAND FORKS    CLOUDY    -5 -10  79 NW8       30.56S WCI -20
GRAND FRKS AFB MOCLDY    -6 -12  76 NW7       30.55S WCI -20
DEVILS LAKE    CLEAR    -12 -17  78 W9        30.51F WCI -30
FARGO          CLOUDY    -2 -10  69 W9        30.56S WCI -18
WAHPETON ARPT  CLEAR      0  -8  71 NW8       30.56S WCI -15
$$

 ***** WEATHER ACROSS CENTRAL AND WESTERN NORTH DAKOTA  *****

CITY           SKY/WX    TMP DP  RH WIND       PRES   REMARKS
BISMARCK       CLOUDY   -16 -20  82 CALM      30.52F
MINOT          CLOUDY   -14 -19  79 W5        30.50R WCI -26
JAMESTOWN      CLOUDY   -12 -17  78 NW12      30.51S WCI -32
MINOT AFB      CLOUDY   -19 -25  74 NW8       30.49S WCI -37
GARRISON         N/A    -15 -19  82 N3        30.47F
WILLISTON      CLOUDY   -14 -19  79 N3        30.47F
DICKINSON      CLOUDY   -15 -20  78 S3        30.36
HETTINGER      CLOUDY    -9 -12  87 S3        30.38S
$$

 *****  OTHER AIRPORT OBSERVATIONS IN OUR AREA  *****

CITY           SKY/WX    TMP DP  RH WIND       PRES   REMARKS
WALHALLA         N/A     -4  -4 100 NW5       30.56S WCI -15
GRAFTON AIRPOR CLOUDY    -2  -8  78 NW9       30.58S WCI -18
VALLEY CITY AR CLOUDY   -11 -17  77 NW12      30.53S WCI -31
CANDO          FAIR     -13 -18  77 CALM      30.53S
CAVALIER APRT    N/A     -2  -9  71 NW8       30.56S WCI -17
GWINNER        FAIR      -4  -9  77 NW12      30.54R WCI -22
SHEYENNE NWR     N/A     -5 -14  65 NW6       29.95S WCI -18
ROLLA          FAIR     -18 -24  76 NW5       30.46S WCI -31
 ***** THE ABOVE OBSERVATIONS ARE NON NWS ARE NOT QUALITY
       CONTROLLED AND MAY MIS-REPORT RAIN FOR SNOW...
$$

  *****  WEATHER ACROSS NORTHERN MINNESOTA  *****

CITY           SKY/WX    TMP DP  RH WIND       PRES   REMARKS
FLAG ISLAND    CLEAR     -2  -6  84 W12       30.45S WCI -20
WARROAD        FLURRIES  -6  -9  84 W5        30.48S WCI -17
ROSEAU         MOCLDY    -4  -9  77 W6        30.49F WCI -16
HALLOCK        CLOUDY    -2  -6  84 NW9       30.54S WCI -18
THF RVR FALLS  FLURRIES -10 -14  82 NW3       30.51F
BAUDETTE       CLOUDY     0  -7  72 W12       30.44S WCI -17
WASKISH        CLOUDY     0  -6  78 W7        30.46F WCI -13
CROOKSTON      CLOUDY    -9 -15  77 NW3       30.56R
STEPHEN NDAWN    N/A     -2  -8  78 NW9         N/A  WCI -18
GREENBUSH NDAW   N/A     -2  -6  84 W8          N/A  WCI -17
$$
  *****  WEATHER ACROSS CENTRAL AND WEST MINNESOTA  *****

CITY           SKY/WX    TMP DP  RH WIND       PRES   REMARKS
FOSSTON        CLOUDY    -6  -9  84 NW7       30.49S WCI -20
BEMIDJI        CLOUDY     0  -5  79 W10       30.45S WCI -17
PARK RAPIDS    CLOUDY     2  -6  69 NW8       30.44F WCI -12
ELBOW LAKE     FAIR      -1  -4  87 W6        30.51F WCI -13
WADENA         PTCLDY    -2  -6  84 W5        30.47S WCI -12
DETROIT LAKES  CLOUDY     0  -6  78 NW6       30.49S WCI -12
MOORHEAD       CLOUDY    -2  -9  71 NW9       30.56S WCI -18
FERGUS FALLS   CLOUDY     0  -4  85 NW9       30.57F WCI -16
MORRIS MN      CLEAR     -2  -6  84 NW5       30.51F WCI -12
STAPLES        NOT AVBL
$$
  *****  WEATHER ELSEWHERE ACROSS MINNESOTA  *****

CITY           SKY/WX    TMP DP  RH WIND       PRES   REMARKS
DULUTH         CLOUDY     5   0  79 NW5       30.40F WCI  -4
INTRNTL FALLS  MOCLDY    -3  -8  79 W8        30.43F WCI -18
ELY            CLOUDY     3  -4  72 W6        30.38F WCI  -8
CLOQUET        LGT SNOW   7   0  72 NW7       30.41F WCI  -5
WHEATON        CLEAR      1  -2  85 W6        30.57S WCI -10
BRAINERD       CLOUDY     7  -2  66 NW9       30.45F WCI  -7
HIBBING        LGT SNOW   4  -1  80 NW8       30.41F WCI  -9
ALEXANDRIA     CLEAR     -1  -5  82 NW8       30.48F WCI -15
SAINT CLOUD    CLOUDY     6   0  76 NW9       30.49S WCI  -8
MINNEAPOLIS    FLURRIES  13   4  67 NW12      30.49F WCI  -1
$$

  *****  WEATHER ACROSS SOUTH DAKOTA  *****

CITY           SKY/WX    TMP DP  RH WIND       PRES   REMARKS
SIOUX FALLS    LGT SNOW  13  10  88 CALM      30.48S FOG
BROOKINGS      FLURRIES   5   0  79 N7        30.48R WCI  -7
WATERTOWN      CLOUDY     2  -3  80 N3        30.47S
HURON          CLOUDY     5   1  83 N3        30.54S
SISSETON         N/A     -1  -6  79 NW8       30.53F WCI -15
ABERDEEN       CLOUDY    -3 -10  72 N8        30.55S WCI -18
MITCHELL       CLOUDY     6   2  83 N9        30.53S WCI  -8
PIERRE         CLOUDY    -5 -10  79 N6        30.49S WCI -18
MOBRIDGE       CLOUDY    -5 -12  72 N3        30.46F
RAPID CITY     CLOUDY     1  -4  79 SE9       30.31F WCI -14
$$

  *****  SOME WEATHER IN NEARBY STATES *****

CITY           SKY/WX    TMP DP  RH WIND       PRES   REMARKS
GLASGOW MT     CLOUDY    -3  -8  79 E18       30.33F WCI -25
GREAT FALLS MT CLOUDY    -1  -6  79 N5        30.07F WCI -11
CHEYENNE WY    CLOUDY    27  23  85 SW16      30.08S WCI  15
SCOTTSBLUFF NE CLOUDY    14   5  67 E10       30.19F WCI   1
OMAHA NE       CLOUDY    22  12  65 SE6       30.51F WCI  14
DES MOINES IA  CLOUDY    23  12  62 SW6       30.53S WCI  16
DAVENPORT IA   CLOUDY    19  12  74 W7        30.53F WCI  10
CHICAGO IL     MOCLDY    19  12  74 W6        30.49F WCI  11
EAU CLAIRE WI  CLOUDY    15  11  83 W8        30.45S WCI   4
LA CROSSE WI   CLOUDY    19  11  70 NW8       30.50S WCI   9
$$

  *****  SOME NATIONAL WEATHER *****

CITY           SKY/WX    TMP DP  RH WIND       PRES   REMARKS
LA GUARDIA NY  PTCLDY    33  14  45 NW21      30.29R WCI  21
RALEIGH NC     CLEAR     30  14  51 CALM      30.47R
ATLANTA GA     CLEAR     33  17  51 N9        30.45R
NEW ORLEANS LA CLEAR     47  22  37 NE10      30.49F
OKLAHOMA CITY  CLOUDY    33  15  47 SE8       30.47R
ALBUQUERQUE NM CLOUDY    36  26  67 SE7       30.30S
SALT LAKE CITY CLOUDY    33  29  85 CALM      30.09S
LOS ANGELES CA CLOUDY    61  59  93 CALM      30.16S
BOISE ID       CLOUDY    31  29  92 W6        30.00F FOG
SEATTLE WA     CLOUDY    35  31  85 E15       29.83F
$$

*** WEATHER ACROSS MANITOBA...SASKATCHEWAN AND ONTARIO ***
                ***ONTARIO***

CITY           SKY/WX    TMP DP  RH WIND       PRES   REMARKS
GERALDTON      CLOUDY     1  -2  85 NW3       30.29F
THUNDER BAY    CLOUDY    12   3  67 NW7       30.38F WCI   2
SIOUX LOOKOUT  FLURRIES   1  -4  78 NW6       30.35S WCI -10
TORONTO        PTCLDY    21  14  73 W5        30.32S WCI  15
BIG TROUT LK   FLURRIES  -2  -6  84 NW10G17   30.37F WCI -19
PICKLE LAKE    NOT AVBL
DRYDEN         FLURRIES   1  -2  85 W6        30.36S WCI -10
KENORA         FLURRIES  -2  -6  84 W7        30.40  WCI -16
$$
                *** MANITOBA***

CITY           SKY/WX    TMP DP  RH WIND       PRES   REMARKS
BRANDON        CLEAR    -15 -20  76 W10       30.52S WCI -35
DAUPHIN        CLEAR    -17 -22  76 W9        30.54F WCI -36
ISLAND LAKE    NOT AVBL
PILOT MOUND      N/A    -15 -20  76 NW6         N/A  WCI -29
THE PAS        FLURRIES  -8 -13  77 W9        30.54S WCI -25
THOMPSON       CLOUDY    -6 -11  77 W3        30.49F
WINNIPEG       PTCLDY    -8 -11  84 NW9       30.54S WCI -25
LYNN LAKE      FLURRIES  -6  -8  92 W6        30.44F WCI -18
CHURCHILL      CLEAR     -8 -13  77 W15G22    30.38F WCI -29
GILLAM         CLEAR     -9 -15  77 NW10G17   30.45F WCI -28
$$
                ***SASKATCHEWAN***

CITY           SKY/WX    TMP DP  RH WIND       PRES   REMARKS
ESTEVAN        PTCLDY   -18 -24  76 W3        30.47F
KINDERSLEY     PTCLDY   -15 -18  84 SE8       30.34F WCI -32
LLOYDMINSTER   CRYSTALS -15 -20  76 S6        30.36F WCI -29
PRINCE ALBERT  CLEAR    -18 -24  76 W2        30.49F
REGINA         CLEAR    -13 -18  77 S5        30.45F WCI -25
YORKTON        CLEAR    -13 -17  84 W7        30.46F WCI -29
N. BATTLEFORD  CLEAR    -17 -22  76 SE6       30.46F WCI -31
LA RONGE       CLEAR    -20 -26  76 CALM      30.50F
SASKATOON      CRYSTALS  -9 -13  84 E2        30.47F
SWIFT CURRENT  FLURRIES  -2  -8  78 SE9       30.27F WCI -18
$$
NOTE: THESE ARE AUTOMATED STATIONS WITH LIMITED QUALITY CONTROL
      "FAIR" INDICATES FEW OR NO CLOUDS BELOW 12,000 FEET WITH NO
      SIGNIFICANT WEATHER AND/OR OBSTRUCTIONS TO VISIBILITY.
      SKY/WX - SKY CONDITION AND SIGNIFICANT WEATHER.
      TMP - AIR TEMPERATURE.    DP   - DEWPOINT TEMPERATURE.
      RH  - RELATIVE HUMIDITY.  PRES - PRESSURE.
      HX  - HEAT INDEX.         WCI  - WIND CHILL INDEX.
$




USA.gov is the U.S. government's official web portal to all federal, state and local government web resources and services.